Location: Ferchesar
(52.6477°N, 12.4298°E)
Time: 10:04:52
(UTC+01:00)

Tiros 1 despin weight - Pass Details

Date: 07 December 2021
Orbit: 592 x 641 km, 48.2° (Epoch: 19 January)

Event Time Altitude Azimuth Distance (km) Brightness Sun altitude
Rises 12:08:25 0° 215° (SW) 2,841 ? 14.7°
Reaches altitude 10° 12:11:07 10° 200° (SSW) 1,933 ? 14.7°
Maximum altitude 12:14:30 22° 150° (SSE) 1,329 ? 14.6°
Drops below altitude 10° 12:17:52 10° 100° (E) 1,926 ? 14.6°
Sets 12:20:33 0° 85° (E) 2,827 ? 14.6°
